{"data":{"norad_id":48570,"epoch":"2026-06-26T20:19:54.135840Z","epoch_age_seconds":7437731,"freshness":"OLD","line1":"1 48570U 21041T   26177.84715435  .04765165  12113-4  10575-2 0  9998","line2":"2 48570  53.1089 346.5809 0011738 324.0030  36.0221 16.29381167281862","mean_motion":16.29381167,"eccentricity":0.0011738,"inclination_deg":53.1089,"raan_deg":346.5809,"arg_perigee_deg":324.003,"mean_anomaly_deg":36.0221,"bstar":0.0010575,"rev_number":28186,"period_min":88.377110842107,"perigee_km":186.48875360145,"apogee_km":201.91797984637,"semimajor_km":6572.3403667239,"source":"CELESTRAK","updated_at":"2026-06-27T09:00:37.890056Z"}}